Location: McFarlands Corners
(41.4117°N, 81.3382°W)
Time: 12:20:18
(UTC+00:00)

A-11 Canister half - Pass Details

Date: 25 February 2026
Orbit: 1524 x 1683 km, 47.3° (Epoch: 17 March)

Event Time Altitude Azimuth Distance (km) Brightness Sun altitude
Rises 20:23:59 0° 245° (WSW) 4,771 12.7 27.0°
Reaches altitude 10° 20:27:05 10° 246° (WSW) 3,767 12.5 26.6°
Maximum altitude 20:36:38 84° 336° (NNW) 1,552 9.5 25.2°
Drops below altitude 10° 20:46:00 10° 65° (ENE) 3,695 10.5 23.9°
Sets 20:49:01 0° 66° (ENE) 4,676 11.0 23.4°
